• In Germany
  • List of Countries
  • For 7 days
  • Water Temperature
  • Satellite Maps
  • Weather Map
  • Weather Widgets
  • user-avatar
    Login

    Hourly Weather Córdoba

    Today, 23 July, Sunday

    Time Temperature Precipitation Wind Pressure Humidity
    00:00 +16°C° 0 mm 3 mps 719 mmHg 65%
    01:00 +14°C° 0 mm 3 mps 719 mmHg 68%
    02:00 +15°C° 0 mm 2 mps 719 mmHg 70%
    03:00 +15°C° 0 mm 2 mps 719 mmHg 73%
    04:00 +14°C° 0 mm 2 mps 719 mmHg 75%
    05:00 +14°C° 0 mm 1 mps 719 mmHg 77%
    06:00 +14°C° 0 mm 1 mps 719 mmHg 77%
    07:00 +14°C° 0 mm 1 mps 720 mmHg 77%
    08:00 +13°C° 0 mm 0 mps 720 mmHg 76%
    09:00 +18°C° 0 mm 1 mps 721 mmHg 68%
    10:00 +20°C° 0 mm 1 mps 721 mmHg 60%
    11:00 +22°C° 0 mm 1 mps 721 mmHg 52%
    12:00 +23°C° 0 mm 1 mps 721 mmHg 49%
    13:00 +24°C° 0 mm 2 mps 721 mmHg 47%
    14:00 +25°C° 0 mm 2 mps 720 mmHg 44%
    15:00 +24°C° 0 mm 2 mps 720 mmHg 47%
    16:00 +22°C° 0 mm 3 mps 721 mmHg 50%
    17:00 +21°C° 0 mm 3 mps 721 mmHg 53%
    18:00 +20°C° 0 mm 3 mps 721 mmHg 58%
    19:00 +18°C° 0 mm 4 mps 722 mmHg 64%
    20:00 +15°C° 0 mm 5 mps 722 mmHg 69%
    21:00 +15°C° 0 mm 5 mps 723 mmHg 72%
    22:00 +14°C° 0 mm 4 mps 723 mmHg 75%
    23:00 +14°C° 0 mm 4 mps 724 mmHg 78%

    Tomorrow, 24 July, Monday

    Time Temperature Precipitation Wind Pressure Humidity
    00:00 +13°C° 0 mm 4 mps 724 mmHg 77%
    01:00 +13°C° 0 mm 4 mps 724 mmHg 76%
    02:00 +13°C° 0 mm 4 mps 724 mmHg 75%
    03:00 +12°C° 0 mm 4 mps 724 mmHg 75%
    04:00 +12°C° 0 mm 3 mps 724 mmHg 75%
    05:00 +11°C° 0 mm 3 mps 724 mmHg 75%
    06:00 +11°C° 0 mm 3 mps 724 mmHg 75%
    07:00 +11°C° 0 mm 3 mps 725 mmHg 74%
    08:00 +11°C° 0 mm 3 mps 725 mmHg 74%
    09:00 +13°C° 0 mm 3 mps 726 mmHg 70%
    10:00 +16°C° 0 mm 3 mps 726 mmHg 65%
    11:00 +18°C° 0 mm 3 mps 726 mmHg 61%
    12:00 +19°C° 0 mm 3 mps 726 mmHg 59%
    13:00 +20°C° 0 mm 3 mps 725 mmHg 57%
    14:00 +21°C° 0 mm 3 mps 725 mmHg 55%
    15:00 +21°C° 0 mm 3 mps 725 mmHg 57%
    16:00 +20°C° 0 mm 3 mps 725 mmHg 59%
    17:00 +19°C° 0 mm 3 mps 725 mmHg 62%
    18:00 +18°C° 0 mm 3 mps 725 mmHg 67%
    19:00 +17°C° 0 mm 3 mps 726 mmHg 72%
    20:00 +16°C° 0 mm 3 mps 727 mmHg 77%
    21:00 +14°C° 0 mm 3 mps 727 mmHg 79%
    22:00 +14°C° 0 mm 3 mps 727 mmHg 80%
    23:00 +14°C° 0 mm 2 mps 727 mmHg 82%

    Day after tomorrow, 25 July, Tuesday

    Time Temperature Precipitation Wind Pressure Humidity
    00:00 +14°C° 0 mm 2 mps 727 mmHg 83%
    01:00 +13°C° 0 mm 3 mps 727 mmHg 83%
    02:00 +13°C° 0 mm 3 mps 727 mmHg 84%
    03:00 +14°C° 0 mm 2 mps 726 mmHg 85%
    04:00 +14°C° 0 mm 2 mps 726 mmHg 86%
    05:00 +14°C° 0 mm 2 mps 726 mmHg 87%
    06:00 +14°C° 0.1 mm 2 mps 726 mmHg 88%
    07:00 +14°C° 0.1 mm 2 mps 727 mmHg 89%
    08:00 +14°C° 0.1 mm 2 mps 727 mmHg 89%
    09:00 +15°C° 0 mm 2 mps 727 mmHg 86%
    10:00 +16°C° 0 mm 2 mps 727 mmHg 83%
    11:00 +17°C° 0 mm 2 mps 727 mmHg 79%
    12:00 +18°C° 0 mm 2 mps 726 mmHg 76%
    13:00 +19°C° 0 mm 2 mps 725 mmHg 73%
    14:00 +20°C° 0 mm 2 mps 725 mmHg 70%
    15:00 +19°C° 0 mm 2 mps 724 mmHg 71%
    16:00 +19°C° 0 mm 2 mps 724 mmHg 73%
    17:00 +19°C° 0 mm 2 mps 724 mmHg 74%
    18:00 +18°C° 0 mm 2 mps 725 mmHg 79%
    19:00 +18°C° 0 mm 1 mps 725 mmHg 84%
    20:00 +18°C° 0 mm 1 mps 726 mmHg 88%
    21:00 +16°C° 0 mm 1 mps 726 mmHg 90%
    22:00 +16°C° 0 mm 1 mps 726 mmHg 91%
    23:00 +16°C° 0 mm 1 mps 726 mmHg 93%

    26 July, Wednesday

    Time Temperature Precipitation Wind Pressure Humidity
    00:00 +16°C° 0 mm 1 mps 725 mmHg 93%
    01:00 +15°C° 0 mm 1 mps 725 mmHg 93%
    02:00 +15°C° 0 mm 1 mps 725 mmHg 93%
    03:00 +15°C° 0 mm 1 mps 725 mmHg 93%
    04:00 +15°C° 0 mm 1 mps 724 mmHg 93%
    05:00 +14°C° 0 mm 0 mps 724 mmHg 93%
    06:00 +15°C° 0 mm 1 mps 725 mmHg 92%
    07:00 +15°C° 0 mm 1 mps 725 mmHg 92%
    08:00 +15°C° 0 mm 1 mps 726 mmHg 91%
    09:00 +18°C° 0 mm 1 mps 726 mmHg 84%
    10:00 +20°C° 0 mm 1 mps 726 mmHg 77%
    11:00 +20°C° 0 mm 2 mps 726 mmHg 70%
    12:00 +23°C° 0 mm 2 mps 725 mmHg 66%
    13:00 +24°C° 0 mm 2 mps 724 mmHg 62%
    14:00 +25°C° 0 mm 3 mps 724 mmHg 58%
    15:00 +24°C° 0 mm 3 mps 724 mmHg 60%
    16:00 +24°C° 0 mm 3 mps 723 mmHg 63%
    17:00 +22°C° 0 mm 3 mps 723 mmHg 65%
    18:00 +21°C° 0 mm 2 mps 724 mmHg 71%
    19:00 +20°C° 0 mm 2 mps 724 mmHg 78%
    20:00 +20°C° 0 mm 1 mps 724 mmHg 84%
    21:00 +19°C° 0 mm 1 mps 724 mmHg 85%
    22:00 +19°C° 0 mm 1 mps 724 mmHg 87%
    23:00 +17°C° 0 mm 0 mps 724 mmHg 88%

    27 July, Thursday

    Time Temperature Precipitation Wind Pressure Humidity
    00:00 +18°C° 0 mm 1 mps 723 mmHg 89%
    01:00 +18°C° 0 mm 1 mps 723 mmHg 89%
    02:00 +18°C° 0 mm 1 mps 723 mmHg 90%
    03:00 +18°C° 0 mm 1 mps 722 mmHg 90%
    04:00 +18°C° 0 mm 1 mps 722 mmHg 90%
    05:00 +16°C° 0 mm 1 mps 722 mmHg 90%
    06:00 +18°C° 0 mm 1 mps 722 mmHg 88%
    07:00 +18°C° 0 mm 1 mps 722 mmHg 86%
    08:00 +17°C° 0 mm 2 mps 722 mmHg 85%
    09:00 +20°C° 0 mm 3 mps 723 mmHg 72%
    10:00 +22°C° 0 mm 4 mps 723 mmHg 60%
    11:00 +26°C° 0 mm 6 mps 723 mmHg 48%
    12:00 +27°C° 0 mm 6 mps 722 mmHg 42%
    13:00 +29°C° 0 mm 7 mps 722 mmHg 37%
    14:00 +30°C° 0 mm 7 mps 721 mmHg 32%
    15:00 +29°C° 0 mm 6 mps 721 mmHg 33%
    16:00 +28°C° 0 mm 5 mps 720 mmHg 35%
    17:00 +28°C° 0 mm 4 mps 720 mmHg 37%
    18:00 +26°C° 0 mm 3 mps 720 mmHg 40%
    19:00 +25°C° 0 mm 3 mps 721 mmHg 43%
    20:00 +22°C° 0 mm 3 mps 721 mmHg 46%
    21:00 +22°C° 0 mm 3 mps 721 mmHg 47%
    22:00 +22°C° 0 mm 3 mps 721 mmHg 48%
    23:00 +21°C° 0 mm 3 mps 721 mmHg 49%

    28 July, Friday

    Time Temperature Precipitation Wind Pressure Humidity
    00:00 +21°C° 0 mm 3 mps 720 mmHg 50%
    01:00 +20°C° 0 mm 3 mps 720 mmHg 51%
    02:00 +20°C° 0 mm 3 mps 720 mmHg 52%
    03:00 +20°C° 0 mm 3 mps 720 mmHg 53%
    04:00 +19°C° 0 mm 3 mps 720 mmHg 54%
    05:00 +19°C° 0 mm 3 mps 720 mmHg 55%
    06:00 +19°C° 0 mm 2 mps 720 mmHg 55%
    07:00 +19°C° 0 mm 2 mps 721 mmHg 54%
    08:00 +19°C° 0 mm 2 mps 721 mmHg 54%
    09:00 +22°C° 0 mm 3 mps 722 mmHg 47%
    10:00 +25°C° 0 mm 4 mps 722 mmHg 40%
    11:00 +27°C° 0 mm 5 mps 722 mmHg 33%
    12:00 +29°C° 0 mm 5 mps 722 mmHg 31%
    13:00 +30°C° 0 mm 4 mps 721 mmHg 29%
    14:00 +32°C° 0 mm 4 mps 721 mmHg 27%
    15:00 +30°C° 0 mm 3 mps 721 mmHg 29%
    16:00 +29°C° 0 mm 3 mps 721 mmHg 32%
    17:00 +28°C° 0 mm 2 mps 721 mmHg 34%
    18:00 +27°C° 0 mm 3 mps 722 mmHg 40%
    19:00 +25°C° 0 mm 3 mps 722 mmHg 46%
    20:00 +22°C° 0 mm 3 mps 723 mmHg 53%
    21:00 +21°C° 0 mm 4 mps 723 mmHg 61%
    22:00 +20°C° 0 mm 4 mps 724 mmHg 69%
    23:00 +19°C° 0 mm 4 mps 724 mmHg 77%
    Show more